Theta_e
314 313 315 319 320 321 319 319 321 319 322 320 317 318 315 314 314 314 316 315 315 317 316 315 314 314 316 317 318 319 319 321 321 319 322 322 321 321 323 326 330 334 336 336 336 335 334 334 332 329 330 328 328 329 328 327 326 326 326 327 330 331 332 333 333 333 332 332 331 331 330 330 330 331 331 331 331 329 327 325 323 323 321 318 315 313 309 306 305 305 305 305 305 305 308 311 318
313 314 317 319 320 322 320 318 324 325 324 318 315 318 314 314 315 317 318 316 318 318 317 316 316 317 318 318 318 319 321 323 323 323 323 322 323 322 323 326 330 334 336 336 336 336 335 335 334 330 329 329 328 330 330 328 325 324 324 325 329 330 331 332 332 332 332 331 330 330 329 328 329 330 331 330 329 327 325 324 324 324 323 320 316 313 311 307 305 306 305 306 306 305 308 311 318
314 316 319 320 321 321 322 320 322 326 325 318 318 320 314 314 318 318 317 316 319 318 318 317 317 318 318 318 318 319 321 322 324 324 323 323 323 322 322 326 330 335 336 337 337 337 336 336 335 330 328 328 328 330 330 328 326 324 323 325 328 329 330 330 330 330 330 330 328 328 328 328 328 329 330 329 327 325 325 325 326 326 324 322 318 314 312 309 305 306 305 306 306 307 311 312 319
315 319 321 321 321 321 330 329 325 328 324 319 319 320 318 319 319 315 314 317 318 316 316 317 318 318 317 318 318 319 321 321 322 322 322 324 323 321 321 326 332 334 336 337 337 337 337 336 335 332 329 328 328 329 328 327 326 325 323 324 326 328 329 329 329 329 329 329 327 327 328 328 329 329 329 329 327 326 326 326 327 326 324 323 320 315 313 311 307 305 306 307 306 308 313 314 319
317 320 321 321 323 321 326 324 323 325 320 321 318 318 324 322 317 313 314 318 317 315 315 317 319 318 318 318 318 318 320 320 320 320 321 322 322 320 319 326 332 334 336 337 337 337 337 336 336 334 331 329 329 329 328 327 326 325 324 322 322 324 326 328 329 328 328 328 327 326 327 328 328 328 328 329 329 327 327 327 328 326 323 322 321 318 314 312 308 306 306 307 307 309 312 312 312
319 320 321 321 321 316 320 319 318 321 319 321 319 319 322 315 314 314 314 317 315 315 315 316 318 318 318 319 319 319 320 319 318 319 320 320 319 319 318 322 331 334 335 336 337 337 337 337 336 335 333 331 330 329 329 328 326 325 325 323 319 319 321 324 327 327 327 327 326 325 326 328 327 327 328 329 329 329 328 329 328 325 323 322 321 318 315 312 310 307 306 307 307 308 308 308 307
320 320 320 320 319 317 325 325 320 322 316 314 316 317 315 310 312 313 312 314 314 314 315 316 317 318 318 319 319 319 321 319 317 318 319 318 317 319 318 319 329 334 334 336 336 336 337 337 336 336 335 333 332 331 329 328 325 324 324 324 322 317 317 320 322 324 325 325 324 325 326 327 327 328 329 329 329 330 329 329 327 324 322 322 320 318 315 312 310 307 306 306 307 307 307 307 307
320 320 318 323 325 323 329 326 321 321 313 307 310 313 311 311 312 312 311 313 314 314 315 316 316 317 318 318 317 319 320 317 316 317 317 318 317 319 318 318 326 333 334 334 335 336 335 335 336 336 335 334 332 331 329 326 324 322 323 324 324 319 316 318 319 321 322 323 324 325 326 327 328 329 328 328 329 329 328 327 325 323 323 322 320 317 315 312 310 308 306 306 306 307 307 307 307
320 320 318 324 329 327 327 320 317 317 315 312 310 310 311 312 312 312 311 311 313 313 315 316 315 315 316 317 317 318 317 316 316 316 316 317 318 319 319 319 325 332 334 334 335 336 335 334 334 335 336 335 332 331 329 327 324 323 323 323 324 320 317 317 319 320 321 323 324 325 327 328 329 329 329 328 329 328 327 326 323 323 323 321 318 315 313 311 310 308 306 306 305 306 306 307 307
319 319 316 323 328 324 320 317 317 317 315 313 310 310 312 313 312 312 311 311 312 313 316 316 314 314 315 317 317 317 317 317 315 315 316 317 319 319 321 322 325 332 334 335 336 336 335 333 333 335 336 335 333 333 331 329 327 325 324 323 323 321 318 317 318 320 321 323 324 325 326 328 329 330 329 328 328 327 326 324 323 324 323 320 318 314 312 310 309 308 306 305 305 305 305 306 306
318 316 317 327 330 322 320 320 320 322 317 312 311 312 312 313 312 311 311 312 313 314 316 316 315 314 315 316 316 316 316 316 315 315 316 318 319 320 323 323 325 331 334 335 336 336 334 332 334 335 335 336 334 334 333 331 329 328 326 324 323 322 320 318 319 320 322 323 326 326 326 327 329 330 329 327 327 326 325 324 324 325 323 320 318 315 312 310 309 307 306 306 305 304 304 305 305
317 318 327 335 329 322 325 323 321 326 325 318 314 312 312 312 312 312 312 312 313 314 315 316 315 315 316 315 315 316 316 317 316 315 316 317 319 321 324 323 323 329 333 334 335 336 335 335 334 334 334 335 334 335 334 332 331 329 328 326 324 323 320 319 319 319 322 324 326 326 326 327 328 330 328 326 326 325 325 325 325 325 323 320 320 319 318 316 315 312 310 309 308 307 306 306 305
316 319 332 328 319 322 323 320 319 323 324 319 314 312 313 311 312 313 313 312 312 313 315 315 314 316 316 315 315 315 316 317 315 315 315 317 318 322 325 323 322 326 331 333 334 336 336 336 335 334 335 334 334 336 335 334 333 331 329 327 325 323 321 319 319 318 320 323 325 325 326 326 327 329 328 325 326 325 325 325 325 325 324 322 321 321 321 322 321 319 317 315 313 312 311 310 309
316 318 329 322 313 320 322 319 318 317 319 318 313 312 313 312 313 313 313 313 313 314 315 314 314 316 316 315 315 315 315 315 316 315 315 317 318 321 326 325 321 323 329 332 332 334 335 335 335 336 336 335 335 335 335 334 334 332 330 328 326 324 322 321 320 320 320 321 323 324 325 325 326 328 328 325 324 324 324 325 325 325 325 324 322 321 322 322 323 322 320 318 316 315 314 314 314
316 314 325 326 316 318 320 318 319 319 319 317 314 312 313 313 313 313 313 314 314 313 314 314 314 316 315 316 316 315 315 314 315 315 315 316 318 320 325 326 323 321 326 331 331 332 334 333 333 335 335 335 335 335 335 335 334 333 331 329 327 325 323 323 322 322 321 321 322 324 325 324 326 327 327 325 323 324 324 325 325 325 326 325 323 322 322 322 323 322 321 319 317 317 317 318 319
316 315 325 329 319 318 317 316 318 320 318 312 312 313 313 313 313 313 313 313 314 313 314 314 315 315 315 316 315 315 315 314 314 314 315 315 317 320 323 328 326 321 322 326 330 331 332 331 333 335 334 334 335 335 335 336 335 333 332 331 328 327 324 324 323 323 323 322 322 323 324 325 325 326 326 326 324 324 324 325 324 325 326 326 324 322 323 323 323 322 321 320 319 319 320 321 321
314 321 331 328 320 321 318 316 317 320 321 312 310 313 313 314 312 313 314 313 314 313 314 315 315 315 315 315 315 315 314 314 314 313 314 313 316 317 322 326 323 323 325 321 323 327 328 329 332 334 334 333 332 333 335 335 335 334 334 332 330 328 326 326 324 324 324 323 323 323 324 325 325 325 325 325 324 324 324 324 324 325 326 326 325 323 324 324 324 323 321 320 320 321 321 322 322
318 329 330 323 324 324 319 317 314 317 321 313 311 313 314 315 313 313 314 313 314 314 314 314 315 315 315 315 314 315 314 314 314 313 314 312 314 314 320 324 319 325 330 325 323 326 328 329 331 331 331 332 332 335 336 334 336 335 334 333 331 329 327 327 325 324 324 324 324 323 324 325 325 325 324 324 324 324 323 323 324 326 326 326 325 323 324 325 324 323 321 321 321 321 322 322 322
319 326 323 326 329 320 314 314 311 313 316 312 312 312 313 315 313 313 315 314 313 314 315 314 314 315 315 315 315 315 315 314 314 313 314 313 314 313 315 320 316 322 328 328 329 332 334 335 334 330 327 328 332 337 335 333 335 335 335 334 332 331 329 329 327 326 325 324 324 324 324 325 326 325 324 324 323 323 323 323 325 326 326 326 326 324 324 325 324 324 322 322 321 321 322 322 322
314 318 322 328 322 313 311 312 312 313 313 312 312 312 312 313 313 314 314 313 313 314 315 314 314 316 315 315 315 315 315 314 314 313 313 313 313 314 314 315 314 318 323 326 331 335 336 338 337 334 329 324 327 332 330 330 333 334 335 334 333 333 331 330 328 327 326 325 325 324 324 325 326 326 325 325 324 324 323 323 325 326 326 326 326 324 324 324 324 324 324 323 322 322 323 323 322
312 316 322 318 311 313 314 312 313 313 312 313 312 312 313 313 313 313 313 314 315 314 315 315 315 316 315 315 315 315 315 314 314 313 313 313 313 314 314 315 316 320 323 323 329 335 336 337 337 337 331 320 320 327 327 328 331 332 333 333 333 333 332 331 329 329 328 326 326 325 325 325 326 326 325 325 325 325 325 325 325 326 326 326 326 324 324 324 325 324 324 324 324 323 323 323 322
313 313 314 310 309 314 314 311 314 312 312 313 311 312 313 313 313 313 313 315 316 315 315 316 315 315 315 315 315 315 315 315 315 314 314 314 314 314 313 314 315 318 320 318 320 327 331 333 334 336 331 320 321 326 331 334 333 333 332 332 332 332 333 332 331 330 329 327 327 326 326 325 326 326 326 325 326 325 326 326 326 326 326 325 325 325 324 324 325 325 324 324 324 324 323 323 322
316 313 309 310 311 313 313 312 313 313 313 313 311 313 313 313 313 313 313 314 316 315 315 316 315 316 315 315 315 315 315 315 315 315 315 315 314 314 313 314 314 314 315 314 314 317 320 323 325 328 325 323 325 327 331 336 337 335 331 330 331 331 332 332 332 331 330 329 328 328 327 327 327 326 327 326 326 327 327 327 327 327 327 326 325 325 324 325 325 325 324 324 324 324 323 322 322
318 317 310 310 311 311 313 313 313 313 313 313 312 313 313 313 314 313 313 315 316 315 315 315 315 316 315 315 315 315 315 315 315 315 315 315 314 314 314 313 314 314 314 314 315 314 314 315 316 318 318 321 325 323 324 328 332 332 329 328 328 329 332 332 332 331 331 330 329 329 328 328 329 328 328 328 328 328 328 328 328 327 328 326 326 325 325 325 326 325 325 324 324 323 322 322 322
317 317 312 311 312 313 314 313 313 313 313 313 313 313 313 313 313 312 314 316 315 315 316 315 315 315 315 315 315 315 315 315 315 315 314 314 314 313 313 314 313 314 314 314 315 314 314 314 313 314 316 318 321 322 322 324 328 333 331 329 326 326 331 332 332 331 331 331 329 329 329 330 330 329 329 329 329 330 330 329 328 328 328 327 326 326 325 326 326 326 325 324 324 323 321 321 321
314 314 313 313 313 313 314 314 313 313 313 313 313 313 312 312 312 313 316 316 316 315 315 315 315 315 315 315 315 315 315 315 315 314 315 314 314 313 313 313 313 313 314 314 314 314 313 313 313 314 314 316 319 321 323 326 330 333 333 331 328 324 326 330 330 330 331 330 328 327 329 330 330 329 329 330 330 329 330 329 328 328 328 328 327 326 326 326 326 325 325 324 324 322 321 321 320
313 312 313 313 313 313 314 314 313 313 313 313 314 313 312 312 313 315 316 316 316 315 315 315 315 314 314 314 314 315 315 315 315 314 314 313 314 314 313 313 313 314 314 314 314 314 313 313 313 313 313 314 315 317 319 323 326 328 329 329 328 324 324 329 330 329 329 328 328 328 329 330 330 329 329 330 330 329 330 329 328 328 328 328 327 326 326 325 325 325 324 323 322 321 320 320 319
312 313 314 313 313 314 313 313 313 314 314 313 313 312 311 311 313 316 315 315 316 315 316 315 315 315 314 314 314 315 315 314 315 314 314 314 314 313 313 313 313 313 314 314 314 313 313 313 313 313 313 313 313 314 315 318 320 322 325 324 324 326 328 330 331 331 330 329 330 330 329 329 330 330 329 329 330 330 330 329 328 328 328 327 326 326 325 325 324 324 324 322 321 320 320 319 314
313 314 316 317 318 317 312 311 312 313 315 313 312 314 314 313 314 315 314 314 315 314 315 315 315 315 314 315 315 314 315 315 315 314 314 314 314 313 313 313 313 313 313 313 314 313 313 313 313 313 313 313 313 314 313 314 315 317 322 321 321 326 329 331 332 332 330 330 330 330 328 329 330 329 328 327 329 330 329 328 328 327 328 327 326 325 324 324 324 324 323 321 320 320 320 316 310
315 312 314 321 323 321 312 309 311 311 313 312 312 317 321 319 314 314 314 314 314 314 315 315 315 315 315 315 315 315 315 314 315 315 315 314 313 313 313 313 313 312 312 313 313 313 313 313 313 313 313 314 313 313 314 313 314 315 318 321 323 327 331 332 332 331 330 329 329 328 328 330 330 328 326 326 328 328 327 328 328 328 327 327 326 325 324 323 323 323 322 320 321 321 319 312 307
318 311 317 323 319 323 317 308 311 313 313 311 313 317 319 319 315 314 314 313 313 314 314 315 314 314 315 315 315 315 315 314 315 314 315 314 314 313 313 313 313 312 312 312 312 312 313 313 313 314 314 314 314 314 313 313 315 315 317 326 330 331 332 332 330 331 329 327 326 326 328 330 330 327 325 325 328 329 327 327 327 327 326 326 326 324 324 323 322 322 320 320 321 319 315 309 306
322 314 322 323 315 327 325 308 309 314 312 310 313 318 318 317 315 313 314 313 313 313 314 315 314 315 314 315 315 315 315 314 314 314 314 314 314 314 313 313 312 311 312 312 312 312 312 313 313 314 314 314 314 313 313 314 315 314 316 327 334 332 331 331 330 329 327 326 327 328 329 330 329 327 325 324 326 327 327 325 325 326 325 324 324 323 324 324 322 321 320 320 319 316 312 308 305
325 316 321 324 317 323 322 310 307 309 311 311 312 317 320 318 314 313 313 313 313 313 314 315 314 315 314 315 315 315 316 315 314 315 314 314 314 314 313 313 312 311 311 312 312 312 312 313 313 314 314 314 313 313 313 313 314 317 322 325 329 330 330 330 329 328 328 329 330 330 329 328 328 327 325 324 324 325 326 324 324 324 324 323 323 323 323 323 321 320 319 320 317 312 309 306 304
325 317 318 323 320 318 319 318 310 306 311 313 312 314 317 317 313 313 313 312 312 312 314 315 315 315 315 315 315 315 315 315 316 316 315 314 313 313 313 312 312 311 311 312 312 312 313 313 313 314 314 313 314 313 313 315 317 322 327 325 323 325 325 325 326 326 328 331 330 329 328 327 327 326 325 324 324 325 325 323 323 324 324 323 323 323 323 321 320 319 319 319 313 307 305 304 303
329 323 321 322 319 316 319 322 312 308 312 314 315 314 314 314 312 312 312 311 311 312 313 314 314 315 315 315 315 316 316 316 317 316 315 314 314 313 313 312 312 311 311 311 312 312 313 313 313 314 314 313 313 313 316 321 321 320 323 324 323 323 321 322 326 326 327 329 328 326 326 325 325 325 324 324 324 324 322 322 324 325 324 323 323 323 322 320 319 318 318 317 311 305 304 303 302
329 329 329 327 322 318 320 322 313 308 313 315 315 315 314 314 312 311 312 311 310 311 312 312 313 313 314 315 316 316 316 317 317 316 315 314 314 313 313 312 312 311 311 311 312 312 313 313 313 314 314 313 313 314 317 319 320 321 323 325 325 325 324 323 325 326 326 326 325 324 324 324 323 322 323 323 323 323 320 320 323 324 323 323 323 322 321 319 318 318 317 314 308 305 303 302 301
322 325 327 325 321 320 321 321 312 306 312 319 316 314 313 313 313 311 310 311 309 310 310 311 313 313 314 315 316 316 317 317 317 316 316 315 314 314 313 313 312 311 311 311 312 312 313 313 313 314 313 313 313 313 316 319 323 325 326 327 324 323 323 323 323 323 324 323 324 325 325 323 321 321 321 321 322 322 319 319 322 323 323 322 321 320 320 319 318 318 315 309 305 304 303 302 301
320 320 320 320 320 320 318 317 313 308 311 319 318 315 313 312 312 311 309 309 309 310 311 311 313 314 314 316 316 317 317 316 317 316 316 315 314 314 313 313 312 311 311 311 312 312 312 313 312 313 312 313 315 314 316 321 325 328 327 325 323 320 321 324 324 324 325 324 325 325 323 322 321 320 320 322 322 321 320 321 322 322 322 320 319 319 320 319 317 315 310 304 303 302 301 300 300
321 321 318 319 320 319 318 316 314 311 311 319 321 316 314 313 312 311 309 310 311 312 313 314 315 313 314 315 315 316 315 315 316 316 316 315 314 314 313 313 313 312 311 311 311 312 312 312 312 313 312 315 318 316 317 321 322 325 326 323 321 322 324 326 326 326 326 325 325 324 322 321 320 320 320 321 321 320 321 322 321 320 320 318 318 319 319 316 312 308 304 302 301 301 300 299 299
320 321 318 319 319 319 320 317 315 313 311 317 321 316 313 313 313 312 311 311 312 313 314 314 314 314 315 316 314 314 314 315 315 315 316 315 314 314 313 313 313 312 311 311 311 312 312 312 312 312 312 317 318 315 318 323 320 320 322 322 323 324 326 326 326 326 325 324 323 321 321 320 319 319 319 318 318 319 320 319 319 319 318 317 318 319 317 312 306 302 300 300 300 299 300 299 299
320 319 317 318 320 319 319 319 318 316 314 314 318 318 320 320 317 318 315 310 310 312 312 313 315 317 317 315 314 314 314 314 314 314 314 314 314 314 314 313 313 312 312 311 311 312 312 312 312 312 312 314 314 313 318 323 320 320 322 324 325 324 324 324 325 325 323 323 322 320 320 319 318 318 317 316 317 319 318 317 318 317 316 317 317 316 313 307 302 300 299 298 298 298 298 298 298
322 321 318 317 319 319 317 318 318 321 323 317 315 321 329 327 321 323 323 319 319 315 309 312 317 319 316 315 317 317 316 315 314 314 313 313 313 313 313 313 313 313 312 311 311 311 312 312 311 312 312 313 314 314 317 318 318 321 325 324 323 322 321 322 323 324 323 322 321 320 319 318 317 316 315 316 317 317 316 317 317 317 317 316 312 308 306 302 300 299 298 297 298 298 297 297 297
321 321 318 315 315 316 317 317 318 324 327 316 315 324 326 323 321 324 328 328 327 319 312 312 316 318 315 316 319 319 318 317 316 315 314 313 312 312 312 313 313 313 312 311 311 311 311 311 311 312 311 313 315 316 318 317 317 320 323 322 320 319 320 322 322 322 322 321 321 319 318 318 316 313 313 316 316 316 316 316 317 316 314 310 304 302 301 299 299 298 298 297 297 297 297 296 296
324 318 316 317 315 318 318 317 318 323 322 316 318 325 322 321 322 323 323 323 324 321 320 318 315 315 316 318 319 319 318 318 317 316 315 315 313 313 312 313 312 312 312 311 311 311 311 311 311 311 311 311 314 318 319 319 317 319 322 321 318 318 320 322 321 320 321 321 319 318 317 317 316 312 313 316 316 316 315 315 316 313 307 302 300 300 299 298 299 298 299 298 297 297 297 296 295
322 313 314 317 317 320 320 320 321 319 319 321 320 319 321 324 322 320 320 321 323 324 327 323 316 315 317 318 319 318 318 318 317 317 316 315 314 313 312 312 312 311 311 311 310 311 311 311 310 311 311 311 313 316 317 317 318 319 321 321 319 320 321 321 320 319 320 320 319 317 317 317 314 312 314 316 314 314 314 314 312 305 301 300 299 299 298 298 299 299 299 299 298 297 297 297 296
313 308 313 316 317 319 321 323 324 321 322 324 322 320 321 324 324 323 320 321 327 327 325 321 314 315 318 319 319 318 318 318 318 318 317 316 315 313 312 311 311 311 311 311 310 310 310 310 310 310 311 311 313 314 313 313 316 318 319 320 319 320 321 321 320 319 319 319 318 316 316 316 313 312 315 314 313 313 313 310 305 300 299 300 298 298 298 299 300 300 299 299 298 297 297 297 297
309 314 321 320 321 322 322 323 322 324 326 324 322 322 320 322 327 327 321 321 327 325 324 323 316 316 319 319 319 318 318 318 318 317 317 317 315 313 312 311 311 311 310 310 310 310 310 310 311 310 311 312 312 313 314 314 315 317 318 319 319 319 321 321 320 319 319 319 317 316 316 314 312 312 313 313 313 312 309 304 300 299 299 298 298 299 299 300 301 300 300 299 299 298 298 299 298
312 326 327 322 324 323 323 324 322 326 328 321 318 317 318 322 326 326 322 321 323 321 325 331 323 318 318 319 318 318 318 317 317 317 317 316 316 314 313 311 310 310 310 310 310 310 310 310 311 310 310 312 312 313 315 315 316 317 318 318 319 320 321 321 319 319 319 318 317 316 315 313 311 311 312 312 311 308 303 300 299 299 298 298 299 299 299 301 301 301 300 300 300 300 300 300 299
316 326 325 322 326 324 324 326 323 325 323 316 314 316 317 320 321 322 321 321 321 316 316 321 318 316 318 318 317 317 317 317 316 316 316 316 316 315 314 312 311 310 310 310 310 310 310 310 310 310 310 311 312 313 314 315 316 317 316 317 318 319 320 319 318 317 317 316 315 314 313 312 310 311 311 309 306 303 300 299 299 298 298 298 299 300 301 301 301 301 301 301 301 301 301 300 300
317 322 323 325 326 327 332 328 320 320 320 314 312 317 320 321 321 321 319 318 318 314 312 315 315 315 318 317 316 316 315 316 316 316 316 316 315 315 314 313 312 311 310 310 310 310 310 310 310 310 310 311 313 314 314 315 316 317 316 316 318 319 319 319 318 316 316 315 314 313 313 311 309 310 308 305 302 300 299 298 298 298 298 298 299 300 301 301 301 301 301 302 302 301 301 300 300
316 320 321 324 327 330 333 331 325 323 324 318 312 317 325 325 325 323 315 312 313 313 314 315 314 316 317 316 315 315 315 316 316 316 316 315 315 314 314 313 312 311 310 310 310 310 310 310 310 310 310 311 312 314 315 316 317 318 317 317 318 318 319 318 316 316 316 315 312 312 312 310 309 308 305 301 300 299 298 298 297 297 297 298 299 300 300 301 301 301 301 301 301 301 300 300 300
316 318 320 323 325 327 323 320 321 322 323 322 317 320 324 322 323 319 312 312 313 312 312 312 314 315 315 316 316 317 317 317 316 316 316 315 314 313 313 312 311 311 310 310 310 310 310 310 310 310 310 311 312 314 315 316 317 318 318 318 318 318 317 316 315 316 315 313 311 311 311 310 308 306 302 300 299 298 298 297 297 297 297 298 299 299 300 300 300 300 299 300 300 299 299 298 298
317 317 321 319 317 324 325 316 312 314 320 323 321 322 322 319 321 317 314 317 317 313 311 310 313 314 313 315 317 318 318 317 316 315 314 314 313 313 313 312 311 310 310 310 310 310 310 310 310 310 310 311 312 314 315 316 318 318 318 317 317 317 316 315 315 315 313 312 311 311 311 309 307 303 300 299 298 298 298 297 297 297 297 298 298 299 299 298 298 298 298 298 298 298 297 297 295
319 320 321 316 313 321 327 322 319 319 323 324 322 322 321 320 322 318 317 320 320 318 315 311 311 311 311 315 317 318 317 316 316 314 313 313 313 312 312 312 311 310 310 310 310 310 310 310 310 310 310 311 312 314 316 316 317 318 317 316 316 316 315 315 315 313 311 311 311 311 310 309 305 301 299 298 298 297 297 297 297 297 297 298 298 298 298 297 297 296 296 295 295 295 296 295 294
316 319 317 317 322 323 322 323 327 326 325 326 325 321 319 319 321 319 320 327 331 326 319 316 313 311 313 316 317 317 317 316 316 315 314 314 313 313 312 311 311 310 310 310 309 309 309 309 310 310 310 310 312 314 315 316 317 316 315 314 314 315 315 314 312 311 311 311 311 310 310 308 303 299 298 298 297 297 297 297 297 297 297 297 297 298 297 296 296 296 295 294 294 294 294 294 294
312 314 313 316 322 323 321 322 324 325 326 327 327 324 321 320 323 323 321 326 332 327 323 324 319 314 316 318 316 316 316 316 316 315 315 314 314 313 312 311 311 310 309 309 309 309 309 309 309 310 310 310 311 314 316 317 317 316 314 313 313 313 313 313 311 311 311 311 310 310 309 306 301 299 298 297 297 297 297 297 296 296 296 297 297 297 296 296 296 295 295 294 294 294 294 294 294
315 316 316 317 318 319 321 320 319 324 328 327 327 325 321 320 324 324 321 322 324 325 327 326 318 314 317 318 315 316 315 315 316 316 315 314 313 313 312 311 310 310 309 309 309 309 309 309 309 310 310 310 310 313 315 316 316 314 314 314 314 313 313 313 312 311 311 310 310 309 308 304 300 298 297 297 297 297 296 296 296 296 296 296 296 296 296 295 295 295 295 295 294 294 294 294 293
317 318 318 317 317 318 321 319 317 322 325 323 324 324 320 321 321 321 324 326 322 320 320 318 315 315 317 316 315 315 314 315 316 315 315 315 314 313 312 311 311 310 309 309 309 309 309 309 309 309 310 310 310 312 314 314 315 314 313 314 314 314 313 313 312 311 310 310 309 309 307 303 299 298 297 297 297 296 296 296 295 295 295 295 295 295 295 295 295 295 295 294 294 294 294 293 293
Wind_Speed
4 5 6 7 6 6 4 3 2 3 4 2 1 1 1 1 0 1 2 2 1 2 2 4 7 11 7 2 5 5 5 3 2 2 2 8 14 15 14 13 13 14 14 13 14 13 13 12 10 10 10 10 9 10 9 9 9 9 9 9 10 11 10 10 10 10 11 12 12 13 13 13 12 12 12 12 13 13 14 15 17 18 19 20 19 18 17 15 14 13 12 11 10 10 10 13 16
6 7 7 8 5 4 2 4 2 2 4 2 2 2 2 1 0 3 4 3 2 4 7 10 11 9 5 4 7 6 5 3 3 6 9 14 15 14 14 13 14 15 15 14 13 13 13 12 11 11 11 10 9 9 9 8 8 8 8 8 9 10 10 9 9 10 10 11 11 12 12 11 10 11 12 12 12 13 14 15 16 18 19 19 19 17 16 15 14 14 13 13 13 13 12 15 18
7 8 8 7 6 5 3 4 2 0 3 1 2 2 1 1 2 4 5 4 9 12 12 11 8 5 2 2 3 3 2 4 7 11 14 16 15 14 13 13 16 17 15 14 13 12 11 11 11 11 12 11 10 9 9 8 7 7 7 8 9 9 9 9 9 10 10 10 10 11 11 10 10 10 11 11 12 13 13 14 15 17 18 19 19 17 16 15 14 14 14 14 15 15 15 17 18
7 9 8 7 7 6 4 3 1 3 2 2 1 3 2 3 5 4 4 9 12 10 7 5 3 1 1 1 3 4 3 6 9 12 15 16 14 13 13 15 17 17 16 14 13 12 11 10 10 10 11 11 10 9 8 7 7 6 6 7 8 8 8 9 9 10 10 10 10 10 10 9 9 9 9 10 12 12 12 13 14 16 17 18 18 17 16 15 15 14 14 15 15 16 16 17 18
7 8 7 6 4 3 3 3 2 3 1 3 1 3 4 4 5 4 6 11 11 4 2 2 2 2 3 4 4 3 5 7 9 12 14 15 14 13 13 16 18 17 16 14 13 12 11 10 9 9 10 11 10 9 7 6 5 4 4 5 7 8 8 9 10 10 10 10 10 10 8 8 8 8 8 9 11 11 11 12 13 14 16 16 17 17 16 15 15 14 14 15 16 16 17 18 17
7 8 6 6 6 3 4 3 2 1 3 4 2 3 4 6 7 7 7 8 8 5 3 1 2 3 4 3 3 6 8 8 9 11 13 14 14 13 13 16 18 18 16 15 13 11 11 9 9 9 9 10 9 9 7 5 3 3 2 2 3 5 6 7 9 9 9 9 9 9 8 8 7 7 8 8 9 9 10 11 12 13 14 15 16 16 15 14 14 14 14 15 16 17 17 17 17
7 6 4 6 6 4 3 3 3 1 2 3 1 3 4 7 10 8 6 5 5 6 6 4 4 4 2 3 5 7 8 7 9 10 12 13 12 12 13 15 18 18 16 16 14 12 11 10 9 8 8 8 8 7 6 4 3 3 2 2 2 2 4 5 6 7 8 8 8 8 7 6 6 7 8 8 8 8 9 10 11 12 14 15 15 15 15 14 14 14 14 14 15 16 16 16 15
6 4 3 5 4 4 3 3 3 1 1 3 3 3 3 8 11 8 6 4 4 5 7 6 6 3 2 5 3 6 7 8 9 10 12 11 11 12 13 16 18 19 18 17 15 14 12 11 10 9 7 7 7 6 5 4 3 4 4 3 2 2 4 5 5 5 6 7 7 7 7 6 6 7 7 8 8 8 9 10 10 12 13 14 15 15 14 13 13 13 13 14 15 15 15 15 15
6 3 3 5 2 3 2 2 1 2 2 3 4 5 3 9 10 7 5 3 4 5 7 9 6 1 4 6 2 7 8 8 10 10 12 11 11 13 14 16 17 19 19 18 16 14 13 12 11 9 8 8 8 7 6 5 4 5 5 4 4 3 5 6 4 4 5 6 6 6 6 5 6 6 7 8 8 7 8 9 10 11 12 14 14 14 13 13 13 12 12 13 14 14 15 15 15
4 3 4 4 3 3 2 0 1 1 3 4 5 4 4 10 10 6 4 3 4 5 8 10 4 2 5 5 3 7 9 8 10 11 12 11 11 14 15 16 18 20 19 19 16 15 14 12 10 10 9 8 8 8 7 7 6 5 5 5 4 4 6 7 5 5 5 5 5 5 5 5 5 5 6 7 7 7 7 8 9 11 12 13 14 14 13 13 13 13 13 14 14 14 14 15 15
3 3 5 4 3 2 2 3 3 2 3 4 4 4 5 9 9 4 4 3 5 5 9 10 3 4 6 4 5 8 9 9 10 11 12 12 12 14 16 16 20 22 20 20 17 16 15 12 10 10 10 9 8 7 6 7 7 6 5 4 4 3 5 6 6 5 5 4 5 5 4 4 4 5 6 6 7 7 7 8 9 10 12 13 14 14 14 14 14 14 14 14 15 15 15 15 15
2 2 4 3 2 2 2 3 3 4 4 3 1 5 6 9 8 4 5 4 6 6 8 9 3 5 5 2 7 10 10 11 11 11 11 12 13 14 15 15 19 23 22 21 19 17 15 13 11 11 11 11 10 8 7 8 8 8 6 5 4 4 5 6 6 5 4 4 4 4 4 3 3 5 5 5 5 5 6 7 8 9 11 13 13 14 15 16 16 15 15 16 16 15 16 16 17
4 2 4 3 2 2 3 3 2 3 4 3 3 5 7 10 8 6 7 5 7 5 6 10 6 5 4 1 7 11 11 12 12 12 11 12 13 14 15 15 16 21 22 23 22 18 16 14 13 12 12 12 10 10 9 9 9 9 7 6 6 5 6 6 6 5 4 5 4 4 3 3 3 4 3 3 4 4 5 5 7 8 10 12 12 12 14 16 16 15 15 16 16 16 17 17 18
5 5 5 3 1 1 4 2 1 2 3 4 3 6 8 8 7 8 7 6 8 7 5 10 8 5 4 2 6 12 13 13 13 13 12 12 13 15 16 15 14 17 21 23 24 22 18 17 15 13 13 12 11 12 10 10 10 10 9 7 7 7 6 6 6 6 5 5 4 4 4 3 3 3 3 1 2 3 4 4 5 6 8 10 10 10 12 14 15 14 15 15 16 16 17 18 18
7 6 5 3 2 0 3 1 2 4 4 4 5 7 8 6 6 8 9 6 7 8 6 8 10 5 4 5 4 10 14 14 14 13 13 13 13 16 16 16 14 14 18 21 24 24 21 19 17 15 15 13 13 13 11 12 12 9 10 9 8 8 8 7 6 6 6 5 5 4 4 4 3 3 3 1 1 2 3 3 4 5 6 8 9 9 10 12 14 14 14 14 15 17 17 18 18
8 6 5 3 2 1 3 2 2 3 4 5 8 8 6 4 5 7 9 7 6 9 8 8 12 7 4 6 4 6 13 14 15 14 14 14 14 16 16 17 15 13 15 19 22 23 23 21 17 16 15 14 15 14 12 14 12 10 10 10 10 9 9 8 7 7 7 6 6 5 4 4 3 3 3 3 1 1 1 1 2 4 5 6 7 7 9 10 12 13 13 13 15 16 16 16 16
7 4 5 2 3 3 4 4 4 4 4 5 9 11 6 2 6 7 8 8 6 9 10 9 13 12 8 7 5 5 11 15 16 16 15 15 15 16 17 18 16 14 14 15 17 18 20 19 16 17 17 16 16 15 13 14 13 11 11 11 11 10 10 8 8 8 8 8 7 6 5 4 4 4 4 4 2 1 1 1 1 2 4 5 6 6 7 9 11 11 12 13 13 14 14 13 14
4 3 4 2 3 4 6 8 7 4 1 6 10 12 9 3 7 8 5 7 8 8 12 13 13 14 13 11 9 7 9 14 17 17 17 15 16 16 17 18 16 15 17 15 13 15 17 17 16 18 18 17 16 15 15 14 14 13 12 12 12 11 11 9 9 9 9 9 8 7 6 5 5 5 4 4 4 3 3 2 1 1 3 3 4 5 6 8 9 10 10 11 11 11 11 11 12
3 3 3 3 5 5 6 10 10 4 2 7 11 11 10 5 9 10 4 5 7 7 10 14 15 15 16 15 13 11 10 14 17 18 17 16 16 16 16 17 16 16 19 18 16 16 18 19 18 18 17 17 18 18 17 15 15 15 14 13 12 12 12 11 11 11 10 9 9 8 8 7 6 6 5 5 6 5 4 3 1 1 2 3 3 4 5 7 8 9 9 9 9 9 9 10 11
2 4 2 4 7 3 5 11 11 5 2 7 11 10 9 6 9 11 5 4 5 8 12 14 17 18 17 16 15 14 12 13 17 18 18 17 16 16 15 15 15 15 17 19 20 19 20 22 21 19 18 16 19 19 17 16 16 17 16 15 14 13 13 13 13 13 11 10 10 10 9 8 7 7 6 6 7 5 4 3 2 2 2 2 2 3 4 6 7 8 9 8 7 7 7 8 8
1 4 3 4 5 2 3 10 8 6 2 4 10 8 6 7 9 10 7 3 4 13 18 17 18 17 15 16 16 15 15 14 16 19 19 18 17 16 16 16 15 15 16 18 21 24 23 23 22 21 20 19 20 20 17 18 20 19 19 18 16 15 15 16 15 14 13 12 11 10 10 9 8 7 7 7 6 5 4 4 4 4 3 3 3 3 4 5 7 8 8 6 5 5 5 5 7
3 2 2 3 5 2 2 6 5 7 5 5 9 8 6 7 8 11 10 6 8 13 15 15 16 16 14 15 15 15 16 16 16 18 19 19 18 17 16 16 17 17 18 18 19 22 25 25 25 24 24 21 19 20 18 18 19 20 21 21 19 17 16 17 16 15 14 13 12 11 10 10 9 7 7 7 6 6 5 6 5 5 4 3 4 4 4 5 7 7 7 6 5 4 4 5 6
2 1 1 5 4 2 2 2 3 6 6 6 9 7 7 8 6 9 14 16 18 15 12 11 10 11 13 15 15 16 16 16 16 16 18 19 18 17 16 15 16 17 17 17 16 17 20 22 24 25 25 22 20 21 20 18 19 21 23 22 21 19 18 19 18 16 15 14 13 12 12 11 9 7 8 7 7 7 7 8 7 7 5 4 5 5 5 5 5 6 5 5 4 3 3 5 7
3 1 2 5 1 3 1 0 2 5 5 6 7 7 7 8 6 6 16 24 21 19 18 16 14 12 12 14 16 16 16 15 16 16 17 18 18 17 17 16 16 16 15 15 16 15 16 17 17 19 22 23 22 23 23 23 23 23 24 24 24 22 21 20 19 18 17 16 14 13 13 12 9 9 9 7 7 8 10 12 11 10 7 5 6 6 7 6 3 4 3 4 4 3 3 6 8
4 2 2 4 1 2 1 1 3 4 4 5 6 6 5 6 5 7 20 25 18 19 20 20 20 19 17 17 17 17 17 17 17 18 19 19 19 19 18 18 17 16 15 15 15 15 15 15 15 16 17 20 22 23 24 25 24 23 24 25 23 21 22 21 20 20 18 17 16 14 13 12 11 9 9 10 11 12 16 18 16 13 9 6 5 5 8 7 3 2 1 2 3 3 4 7 9
3 4 3 3 1 2 1 3 4 5 4 4 5 5 3 4 4 10 23 23 19 20 21 21 22 22 21 19 19 18 18 18 19 19 19 19 20 20 19 18 17 16 16 16 16 15 15 15 15 15 16 18 20 23 25 25 25 26 27 26 22 19 20 20 20 21 20 19 18 16 15 14 12 10 9 12 13 11 15 18 19 16 9 6 6 6 9 7 2 1 1 0 1 2 5 8 10
3 4 4 3 1 2 1 4 4 5 5 4 6 4 2 3 1 8 16 12 12 16 18 21 22 23 22 19 18 17 18 19 20 20 20 21 21 20 19 18 17 17 17 18 17 17 16 15 15 15 16 17 19 22 25 27 28 29 29 27 24 21 17 19 20 19 18 18 18 17 17 15 12 11 10 10 11 11 11 14 18 16 9 9 9 8 9 7 2 1 2 2 2 3 7 9 9
3 3 2 1 4 4 3 4 4 4 4 5 5 3 2 2 3 13 18 13 14 14 15 18 19 21 21 19 18 17 18 18 20 21 22 21 20 19 18 17 17 17 18 19 19 18 17 16 16 16 16 17 19 20 22 26 28 28 27 25 25 22 18 19 20 17 15 16 18 19 17 15 13 12 12 10 10 11 8 10 14 11 10 12 11 9 10 6 3 2 3 3 3 5 8 9 8
5 5 1 5 8 4 3 2 4 4 3 3 1 3 4 4 10 21 19 16 17 17 18 19 19 20 20 20 19 19 19 19 21 22 22 21 19 19 19 18 18 18 18 20 20 19 19 18 17 17 17 18 19 20 20 22 23 24 24 22 23 23 22 22 20 17 16 16 20 21 18 16 15 12 11 10 11 12 8 9 13 11 11 12 10 9 9 5 3 3 4 4 3 6 7 7 6
3 5 1 3 7 4 3 2 2 4 3 4 4 3 6 6 17 21 15 15 16 16 20 21 20 20 20 20 21 21 20 21 22 22 21 21 21 20 20 20 20 20 20 21 21 20 19 19 18 18 18 18 19 20 21 21 20 20 20 20 20 22 24 24 22 19 17 19 21 20 18 17 16 12 9 10 13 15 12 11 14 13 10 10 9 9 8 4 2 5 5 4 3 5 5 4 4
1 2 2 2 2 4 5 1 4 4 4 7 6 4 7 7 14 14 13 15 15 18 21 20 20 20 21 21 21 23 22 23 23 21 22 23 23 22 21 21 21 21 21 21 21 20 20 19 19 18 18 18 19 19 21 21 20 18 19 19 18 22 24 20 19 19 18 19 20 17 16 17 15 12 9 11 12 13 12 11 12 11 9 11 11 10 10 8 6 7 6 3 2 3 3 2 4
3 1 2 3 1 5 8 2 6 3 2 7 7 4 7 8 12 10 11 13 14 19 21 19 21 21 21 22 22 23 23 23 24 23 24 25 25 25 23 22 21 21 21 22 22 21 20 20 19 18 18 18 19 19 20 21 19 16 19 20 18 19 19 16 17 18 18 20 20 19 18 17 14 12 11 12 14 11 11 12 13 13 14 13 13 13 12 10 8 8 6 2 0 1 1 4 7
4 1 3 1 2 3 6 2 4 2 2 5 4 3 5 5 6 3 3 8 12 18 20 19 21 22 22 22 23 24 24 25 26 25 26 26 27 26 24 22 21 21 22 22 23 22 20 20 20 19 18 18 18 18 19 19 17 15 20 23 22 19 17 17 17 15 16 19 20 17 15 13 12 11 12 14 16 15 14 14 14 14 14 14 15 15 13 10 8 6 3 1 0 1 3 7 10
3 2 1 3 2 2 3 4 1 1 2 3 3 3 8 9 7 7 5 6 10 16 21 21 20 22 22 23 24 25 25 26 26 25 25 26 27 26 25 23 22 22 23 23 23 22 21 21 20 19 18 18 17 18 17 16 15 18 23 24 22 22 22 19 18 18 18 17 16 13 12 11 12 11 12 14 16 17 15 14 14 14 15 16 17 17 14 10 7 3 2 2 2 4 7 9 9
3 2 1 3 2 2 3 4 2 2 2 2 3 5 12 13 15 21 20 14 15 21 25 26 25 25 24 25 27 27 28 28 26 23 24 26 26 26 25 24 23 23 24 24 24 23 22 22 21 20 18 18 18 17 16 16 17 19 23 23 19 18 21 19 19 22 22 17 15 14 13 12 14 13 11 13 15 16 14 14 14 15 16 18 18 17 14 9 5 5 4 3 6 9 9 9 9
6 6 4 4 3 3 5 5 4 2 1 4 7 8 11 12 14 20 23 19 19 26 29 30 31 30 30 31 32 32 33 32 28 25 25 26 27 27 26 25 24 24 25 25 25 25 24 23 22 20 19 19 18 17 18 20 20 19 22 24 19 17 20 19 20 22 22 21 20 18 16 15 15 14 13 14 16 15 13 13 14 15 17 17 15 12 10 7 6 6 5 5 8 12 12 10 8
6 6 4 4 4 4 5 4 4 1 3 6 9 8 10 12 11 18 23 16 16 24 28 31 34 34 35 35 37 37 36 35 32 29 28 27 28 28 27 27 26 25 27 27 27 26 25 24 22 21 19 19 17 16 18 19 18 20 24 23 18 17 20 21 22 22 21 21 20 19 17 14 13 12 13 16 18 16 13 13 16 17 18 16 12 9 8 8 8 7 7 8 9 10 11 11 9
5 5 3 2 3 5 6 3 4 0 3 5 6 7 11 12 11 19 22 12 15 26 28 32 36 35 36 37 39 40 37 36 34 33 32 30 30 30 30 30 29 28 29 30 29 27 26 24 23 21 20 19 17 16 18 18 19 24 24 19 17 19 20 20 22 23 20 20 19 18 16 13 12 12 14 18 19 16 15 16 16 17 17 15 13 12 11 11 9 8 9 10 11 8 8 9 9
4 3 2 3 3 4 5 3 4 1 3 5 5 7 11 11 10 17 23 19 23 31 32 35 37 32 35 38 39 38 36 35 35 34 34 33 32 32 32 32 31 30 30 30 29 27 27 25 23 23 20 20 20 18 20 20 22 27 24 19 20 22 22 22 23 22 19 18 18 17 15 14 13 13 15 18 18 17 16 17 15 14 13 12 14 14 13 12 11 10 9 8 9 9 8 9 8
2 3 3 3 2 2 3 4 4 0 2 3 5 7 9 9 8 13 24 26 26 33 35 37 38 36 40 41 37 35 34 35 35 34 34 34 33 33 33 34 33 32 31 31 30 29 28 26 24 24 22 23 24 22 22 23 23 25 26 24 22 21 22 24 24 21 19 18 17 17 16 15 14 15 15 16 17 18 17 16 16 15 14 13 13 13 13 13 13 13 11 7 7 8 9 9 8
4 5 6 4 4 5 5 3 4 2 2 3 4 7 7 6 7 9 13 13 18 28 31 33 37 39 42 42 38 37 37 37 36 34 33 33 33 34 34 35 35 34 32 32 32 30 29 27 24 24 23 24 24 23 25 27 24 24 26 26 23 21 21 23 23 22 20 18 18 18 17 15 14 15 15 16 17 18 16 16 16 16 16 15 13 13 13 14 14 13 11 10 8 7 7 7 7
4 5 9 9 7 7 5 3 5 4 3 3 4 5 6 2 4 8 5 4 9 16 16 22 33 34 33 34 35 35 35 34 33 32 32 31 31 32 34 35 36 35 34 33 32 30 28 26 24 23 23 24 24 23 25 26 25 26 27 25 24 24 23 23 23 22 20 19 19 20 17 15 14 15 16 18 18 18 17 17 17 17 17 16 15 14 15 15 14 13 12 11 9 7 6 5 5
2 4 7 9 6 5 5 1 1 1 4 3 4 2 7 4 4 8 6 5 10 10 9 19 31 30 27 29 30 30 29 29 29 28 28 28 28 29 32 34 35 36 35 33 33 30 28 26 24 24 24 25 25 24 25 26 25 27 27 24 23 25 25 24 22 20 18 19 22 21 19 16 14 15 18 21 19 19 19 17 18 18 17 17 17 16 15 14 14 14 12 10 9 7 6 5 5
3 4 4 6 6 6 5 4 3 3 3 3 3 2 5 8 6 6 5 6 10 11 12 19 25 25 24 25 26 24 24 24 23 24 25 25 25 27 29 31 34 35 35 34 33 31 29 27 25 24 24 25 27 28 28 29 27 28 29 26 22 22 23 23 21 19 18 20 24 23 20 17 15 16 21 21 20 19 20 19 18 19 19 19 19 16 15 15 14 13 11 9 8 6 5 5 4
4 3 5 6 6 5 4 5 2 2 3 4 2 3 3 8 5 3 2 5 8 11 14 16 18 20 19 18 17 16 15 16 17 18 19 20 21 22 24 28 31 34 35 34 33 30 29 27 26 25 24 24 27 30 31 31 29 28 29 27 25 23 23 23 21 19 19 23 25 22 20 17 16 20 22 22 22 20 20 20 20 20 21 20 19 17 16 15 13 11 9 8 7 6 5 4 3
4 6 6 6 5 5 5 4 3 3 2 5 5 6 4 7 4 2 1 3 6 10 12 12 16 19 16 13 12 11 11 11 11 12 12 14 15 16 20 24 29 33 34 33 32 30 29 28 27 25 25 25 26 29 29 30 30 30 29 28 28 26 25 25 23 20 22 26 25 22 20 17 18 24 24 22 24 22 21 22 22 22 20 19 19 18 17 15 12 11 9 8 7 6 4 3 2
9 7 6 6 5 4 3 2 4 2 5 5 6 9 6 5 3 4 3 4 6 8 8 9 13 16 14 11 11 10 9 9 7 7 8 10 12 14 18 23 27 31 33 33 33 31 30 29 28 26 25 25 26 27 28 29 31 30 29 29 27 26 27 27 24 22 25 28 25 22 20 18 20 27 27 25 24 23 23 23 23 22 20 20 19 17 16 14 12 11 9 8 7 5 3 2 1
7 4 4 4 3 4 4 4 3 0 5 3 2 4 5 7 6 3 4 6 6 7 7 8 9 12 12 9 9 9 8 8 8 8 9 11 13 15 19 23 27 31 33 33 33 33 31 30 29 27 27 27 27 28 28 29 30 30 29 28 25 25 27 26 23 22 26 26 24 23 22 22 23 27 28 27 26 25 26 25 24 23 22 21 19 17 16 14 12 10 9 8 6 4 3 1 2
3 4 6 4 2 2 3 3 1 2 6 3 1 1 4 9 8 7 9 12 10 10 12 14 14 17 18 13 11 12 12 13 14 15 15 16 17 18 20 23 27 31 33 33 34 34 33 31 30 29 28 28 29 30 30 29 29 28 28 27 25 25 26 25 22 22 24 23 23 24 24 24 28 30 29 30 29 28 28 26 25 24 22 21 19 17 16 13 12 10 8 7 6 4 3 3 2
5 5 6 4 2 1 2 3 2 4 6 3 1 0 3 5 5 10 16 17 16 15 20 24 23 25 28 24 20 20 20 21 22 21 21 21 20 20 20 23 26 30 31 32 34 35 34 32 32 30 29 29 30 32 32 31 30 29 28 26 25 25 26 26 24 22 23 22 22 23 22 26 32 32 31 32 31 30 29 27 26 24 23 21 19 17 15 14 12 11 9 8 7 6 5 4 3
6 3 5 5 5 5 4 4 4 5 4 3 2 1 3 3 3 8 12 14 16 19 24 27 27 30 33 33 31 28 26 24 23 23 22 21 20 20 20 22 25 28 30 32 34 35 35 34 33 32 31 30 31 33 33 33 32 31 30 28 25 26 28 28 24 22 22 22 22 22 23 28 33 32 32 33 31 31 29 28 27 25 23 22 20 18 17 16 14 13 12 11 9 8 6 6 6
3 3 4 3 5 5 2 3 5 2 3 3 2 4 5 4 6 9 10 11 13 17 19 19 25 30 30 32 32 29 27 25 24 24 22 20 20 20 20 22 25 27 29 31 34 35 36 35 34 33 31 30 31 34 34 33 33 32 32 29 26 28 31 29 25 24 23 22 21 21 25 31 34 33 34 34 32 32 30 29 28 26 24 23 21 20 19 17 16 15 14 13 12 10 9 8 8
2 3 4 4 4 6 3 2 1 3 3 4 2 5 5 4 8 9 8 11 12 11 11 15 22 23 21 26 30 29 28 27 25 24 21 20 19 20 21 22 25 27 28 30 32 34 35 35 34 32 32 32 32 33 33 32 32 31 32 30 28 31 33 29 26 26 25 22 21 22 27 33 35 34 35 34 33 32 31 30 29 27 26 24 23 22 20 19 17 16 15 14 12 11 10 9 8
5 4 6 3 2 3 3 2 2 3 3 4 1 5 6 4 6 4 1 6 11 10 10 15 20 19 19 27 29 26 24 22 20 20 19 19 19 19 20 22 24 26 27 28 30 32 35 35 34 33 33 32 33 34 33 32 31 30 30 30 31 33 33 29 27 27 25 23 23 25 30 35 36 36 36 34 33 33 31 30 29 28 27 26 24 23 21 20 19 17 16 14 12 10 9 8 7
4 4 5 4 2 2 2 2 2 1 3 4 3 4 5 6 7 4 3 6 9 10 9 9 13 16 20 23 20 15 15 14 13 14 15 16 17 18 19 21 23 25 27 27 28 31 35 35 34 33 32 31 32 34 34 34 34 31 29 30 31 33 32 29 29 27 25 24 25 28 32 35 37 37 36 34 34 33 32 31 30 29 28 26 25 23 22 21 19 17 16 13 11 9 8 7 7
3 2 3 2 2 4 3 3 3 3 2 3 3 5 7 8 7 6 9 11 10 8 6 6 11 15 15 12 11 9 9 8 8 8 10 12 13 14 17 19 21 23 25 27 29 32 35 36 36 35 33 32 33 34 34 35 34 32 30 31 32 33 32 31 30 28 25 25 27 30 33 36 38 37 36 34 33 33 32 31 30 29 28 27 25 24 22 21 19 17 15 12 10 9 8 8 8
3 3 5 3 1 2 1 1 2 3 3 2 2 6 12 8 5 8 11 12 10 9 8 8 12 14 10 8 8 7 5 4 4 5 6 8 10 11 14 16 19 22 24 27 29 31 34 37 37 35 34 33 34 35 34 34 33 32 32 33 35 35 34 32 30 28 26 26 29 32 34 37 38 38 36 35 34 33 32 31 30 30 29 27 25 24 22 21 19 17 15 13 12 10 9 9 9
7 7 8 8 6 4 2 2 1 2 3 3 3 7 14 7 5 7 8 8 9 12 11 10 14 16 10 7 8 7 6 5 4 4 4 5 8 9 12 15 18 21 25 27 29 31 34 37 37 36 35 34 35 36 36 35 35 35 33 34 36 36 33 31 30 28 27 28 30 33 35 38 39 38 36 35 34 33 32 31 31 30 29 27 25 24 22 21 19 17 16 14 13 11 10 10 9
Wind_Direction
122 122 121 119 114 119 89 76 97 19 69 95 318 183 223 214 206 203 239 286 279 265 205 166 145 148 154 124 140 112 83 138 163 123 169 160 158 169 173 174 178 174 167 161 154 151 150 148 147 141 137 132 121 110 99 97 100 105 110 116 120 116 114 106 100 94 89 86 80 77 71 71 77 82 81 80 76 66 59 53 50 51 53 52 53 57 58 57 56 58 58 60 62 64 63 64 72
132 128 124 123 109 130 110 54 92 335 48 88 247 190 254 306 349 193 205 236 158 111 115 131 132 137 138 107 107 89 68 77 116 122 137 150 158 167 170 173 174 174 168 162 157 153 153 153 151 146 142 140 133 123 110 102 95 97 107 118 123 120 116 110 106 101 94 88 82 78 72 72 76 78 79 77 71 64 59 56 53 52 53 51 52 56 59 60 59 60 60 62 66 70 71 73 79
136 133 128 125 96 104 109 49 77 48 67 115 260 233 245 152 214 222 205 168 128 112 111 121 121 129 138 94 88 85 96 103 118 127 138 150 160 167 169 172 171 171 168 162 161 156 157 156 153 151 146 144 142 134 124 115 104 102 109 118 126 124 119 117 114 109 101 91 82 77 74 76 76 75 75 74 69 63 59 57 53 51 52 50 50 54 58 61 61 62 65 68 72 76 78 80 84
137 136 127 121 99 83 76 41 106 117 109 197 266 246 222 179 204 223 173 149 141 121 112 129 118 117 120 113 116 106 121 128 131 136 144 153 163 170 169 171 171 171 168 163 163 158 158 159 154 154 147 144 145 140 133 126 120 119 119 124 132 131 124 121 120 117 107 94 83 77 76 80 80 73 68 69 67 61 57 54 52 51 51 49 49 52 57 61 62 63 66 70 74 78 80 83 88
138 142 128 124 107 73 89 69 101 102 171 182 151 244 227 199 183 174 157 160 167 145 99 140 127 114 109 120 129 126 139 141 141 143 149 157 165 172 170 170 172 173 169 162 163 161 160 163 157 157 150 146 146 140 133 127 125 124 126 134 144 141 132 125 123 121 108 95 83 77 81 83 80 72 66 67 64 59 56 54 53 53 52 50 50 51 55 61 64 64 66 70 72 75 77 80 83
129 139 120 110 99 94 116 86 114 146 219 170 139 246 228 197 170 155 161 178 201 226 242 246 185 152 119 113 125 138 141 144 147 149 153 159 166 173 174 173 171 173 171 163 164 166 162 167 166 165 160 151 146 139 133 133 136 129 125 140 160 160 148 133 124 118 105 94 84 82 87 86 80 74 73 71 66 64 59 55 54 54 53 51 51 52 55 60 65 66 67 71 72 74 76 77 78
127 132 106 103 76 60 103 115 176 192 205 173 168 237 228 188 165 153 158 178 216 232 234 237 178 152 124 124 132 148 148 152 152 153 158 161 166 175 179 176 172 172 172 166 165 167 165 173 177 175 172 159 148 141 141 150 166 162 149 152 173 181 163 147 129 118 103 93 88 88 92 90 86 82 82 77 70 65 57 55 54 52 53 52 51 53 56 61 66 68 70 74 76 78 79 80 79
135 128 101 106 43 28 89 114 186 199 183 232 248 247 229 177 163 155 158 174 198 203 211 198 170 154 170 158 152 169 162 159 157 157 162 165 168 173 179 177 174 173 172 171 169 167 171 179 177 179 185 178 161 152 152 156 173 164 154 161 165 171 169 168 147 123 105 96 93 94 99 96 87 84 83 79 75 65 58 55 52 52 53 51 51 52 57 63 68 71 73 76 79 80 81 81 78
140 122 96 96 69 39 54 65 192 242 263 260 253 248 213 171 163 158 164 192 199 190 195 181 171 226 185 178 186 179 173 168 164 160 161 165 168 169 172 174 176 174 174 175 171 171 181 183 172 177 190 186 177 171 166 157 165 160 152 158 160 171 175 179 167 139 118 107 103 100 103 99 92 93 86 82 80 68 61 57 54 55 53 52 52 53 58 65 71 75 77 78 80 80 79 78 76
126 108 113 85 80 53 29 245 229 249 251 260 257 237 182 171 168 166 171 186 206 194 185 179 193 234 174 181 191 180 183 178 170 164 163 166 166 167 168 172 179 177 177 179 176 179 190 187 170 178 187 184 188 185 173 160 158 153 148 150 157 176 183 186 174 151 133 120 117 112 109 107 102 106 93 85 84 69 61 59 58 55 53 54 54 55 60 67 71 74 77 77 78 77 76 74 72
100 69 112 77 80 100 176 204 255 271 271 292 272 212 174 174 167 171 176 177 199 178 176 182 215 198 169 188 193 188 189 184 179 172 166 169 170 168 170 174 179 180 181 183 181 184 191 188 173 177 182 184 194 194 180 171 162 149 144 145 153 173 188 193 181 164 147 133 131 123 117 114 111 111 96 85 83 69 60 60 58 54 54 56 55 58 62 67 69 70 72 73 73 72 71 69 67
134 36 88 80 130 174 194 172 239 286 310 320 219 183 173 175 169 180 182 182 187 177 190 191 211 187 167 214 199 195 193 188 184 181 174 174 176 172 176 179 178 181 182 183 184 185 190 191 183 184 188 189 195 196 186 181 172 156 151 150 155 169 180 190 187 180 163 150 148 138 127 120 120 115 98 84 81 66 59 58 56 54 56 57 58 62 65 66 66 67 69 69 70 69 68 66 65
163 136 97 102 156 152 151 145 245 314 320 265 191 168 165 178 193 205 183 176 179 178 204 200 205 190 184 223 198 199 195 193 186 185 182 177 181 178 182 185 179 180 181 184 185 185 187 190 191 197 202 198 194 193 188 188 182 163 159 162 160 169 174 183 190 191 184 173 169 157 148 137 133 127 107 81 73 57 51 52 52 55 57 59 59 64 66 66 65 65 67 68 69 69 69 69 68
159 147 110 116 120 112 145 128 216 189 251 247 197 175 171 183 212 218 193 180 188 187 198 202 200 186 208 206 202 207 196 195 191 187 190 183 184 184 188 192 187 179 180 185 186 187 189 189 193 199 202 200 197 196 194 195 190 171 164 169 168 172 172 179 187 192 193 189 191 181 177 172 158 154 152 117 58 39 36 43 49 54 59 59 58 63 67 67 65 64 66 68 70 71 72 72 71
151 131 94 103 75 82 172 159 156 164 231 221 175 184 177 191 218 220 210 200 205 204 196 194 190 184 218 200 205 211 199 198 195 191 194 190 187 189 192 198 196 182 180 185 188 190 191 193 195 198 196 197 201 199 201 199 196 182 172 174 174 175 174 179 187 190 194 198 207 201 197 199 189 189 192 215 3 26 23 34 46 54 63 64 62 66 69 69 67 66 67 70 73 75 75 74 72
142 123 73 89 126 198 183 169 124 141 244 204 169 178 168 205 214 204 210 208 210 210 206 193 193 204 213 199 207 210 203 202 198 197 197 194 192 192 192 199 202 194 189 184 187 194 196 196 197 204 199 198 204 201 203 200 200 196 182 179 179 182 179 180 188 191 195 198 209 214 214 215 211 216 224 249 296 11 8 16 40 61 68 67 69 75 75 72 69 68 71 75 78 78 77 74 70
130 103 67 94 161 199 186 174 172 168 240 213 177 178 163 201 201 185 202 209 213 213 212 206 205 216 218 211 220 219 212 209 205 204 203 199 199 197 193 203 204 197 202 188 184 195 199 198 201 212 206 202 208 209 212 204 205 208 194 187 183 187 185 184 195 195 198 200 207 218 222 223 226 234 240 254 276 297 286 326 19 67 84 76 74 86 86 76 72 72 75 80 81 79 74 70 65
115 96 99 156 177 196 188 178 187 165 194 196 181 182 174 176 187 181 192 211 224 227 223 221 221 225 226 230 234 237 223 216 214 211 212 207 207 208 199 206 206 194 206 202 190 197 204 207 211 218 212 209 208 208 217 209 210 214 201 196 191 191 189 189 199 200 203 203 205 213 222 231 235 242 244 255 260 258 267 286 328 92 113 97 89 100 98 86 78 74 76 79 77 70 64 61 58
93 98 118 201 194 202 193 179 183 153 76 174 174 182 185 186 184 182 194 219 219 231 233 228 230 233 232 237 239 243 235 222 220 217 219 217 216 221 213 213 211 200 206 207 201 202 206 208 214 220 215 213 207 207 217 212 212 213 203 203 201 197 195 196 199 202 206 208 209 210 219 229 237 247 244 255 263 257 259 273 281 203 155 115 110 115 103 89 83 78 75 73 68 60 51 50 49
83 101 132 236 207 209 200 184 184 174 88 155 170 183 189 188 183 184 199 217 213 228 233 228 232 238 237 239 241 243 239 225 224 223 224 226 223 223 225 227 225 216 211 205 200 201 202 202 207 217 218 214 211 214 217 214 216 214 209 212 208 203 201 200 201 201 204 209 212 212 218 225 233 244 245 251 263 266 258 263 254 225 192 148 136 124 110 90 83 83 78 70 64 55 44 44 40
107 109 165 227 187 154 187 188 198 210 194 161 172 173 189 195 187 191 190 185 239 239 239 239 246 251 246 244 247 247 244 232 226 227 227 231 231 226 227 229 229 226 222 214 205 203 206 208 208 212 220 221 213 210 211 216 220 218 218 217 211 210 207 200 202 205 202 206 214 216 219 225 229 236 246 246 254 262 252 253 241 225 224 190 164 140 121 99 89 84 77 66 60 54 41 38 35
97 74 213 169 145 102 146 183 207 212 198 171 167 164 192 195 197 207 194 195 238 244 249 253 258 263 255 248 249 248 246 241 232 230 231 234 237 236 232 228 226 224 228 230 219 212 212 217 217 215 222 224 209 200 205 215 219 222 226 224 215 213 212 204 206 210 205 206 214 218 220 223 226 232 244 242 243 249 243 248 235 219 232 207 169 156 138 116 101 86 69 53 47 47 34 32 36
109 2 213 152 132 66 92 169 190 192 190 178 171 181 196 188 211 227 217 229 241 248 256 256 259 261 251 246 245 245 244 244 241 237 235 237 239 242 242 237 234 230 231 234 232 227 222 221 221 221 222 219 206 201 205 207 211 225 235 234 225 215 215 213 212 214 209 213 220 220 222 223 223 227 235 237 233 234 240 242 226 215 224 204 178 164 153 138 109 89 62 37 38 43 34 39 42
103 93 171 167 144 8 40 150 169 173 190 188 177 190 198 197 216 245 241 243 247 254 257 256 257 255 250 246 246 249 247 243 243 242 239 237 238 241 245 245 242 238 233 231 231 230 230 226 221 220 219 215 211 208 210 211 214 228 237 239 234 222 217 218 220 218 212 221 228 222 221 223 219 213 215 228 232 232 235 229 215 209 210 201 186 169 167 158 113 91 61 23 24 38 51 51 42
60 124 179 172 187 336 272 203 181 170 178 182 189 204 209 218 233 258 256 256 256 257 259 259 259 256 252 249 248 251 249 245 240 238 237 235 235 237 240 243 244 242 236 231 229 225 226 226 221 219 218 217 216 212 214 217 215 220 230 239 242 228 217 220 225 225 221 225 229 223 218 218 220 216 206 214 226 233 228 214 202 203 203 199 189 176 180 169 116 91 80 11 13 38 59 51 35
43 130 148 149 130 7 216 199 186 186 192 185 210 231 230 236 266 267 262 265 264 258 259 260 261 259 256 251 248 246 246 247 243 238 237 235 235 237 238 241 243 241 236 232 230 230 227 224 222 219 219 220 219 217 218 219 213 213 223 234 239 230 218 221 229 233 232 232 235 231 220 215 222 231 218 209 218 230 233 217 199 196 199 203 207 199 189 176 134 121 167 37 72 73 56 47 30
87 104 117 118 69 352 259 205 195 203 222 223 227 252 261 218 219 260 260 266 263 257 257 258 259 260 259 254 247 243 242 243 244 241 236 235 235 235 236 239 244 243 236 231 230 233 232 228 225 222 223 222 221 221 221 222 221 222 228 231 231 231 224 224 231 234 236 236 236 232 226 221 220 229 226 217 219 222 238 231 204 195 208 213 212 209 192 178 143 152 167 111 115 77 47 44 29
79 74 132 10 343 313 272 230 218 213 233 242 236 275 270 154 181 247 253 259 263 262 259 258 257 257 258 255 249 244 241 239 240 241 237 237 237 236 237 241 247 247 238 232 231 232 232 232 231 230 230 229 230 229 226 227 228 228 232 230 225 224 226 228 226 221 227 231 224 222 229 227 216 220 224 220 222 214 212 225 210 207 225 214 205 205 191 171 129 146 156 129 112 56 39 36 35
68 63 170 312 351 333 285 272 225 205 224 229 160 299 263 183 228 246 254 258 260 261 258 256 254 254 254 253 251 246 242 239 238 241 240 239 237 235 238 244 247 245 239 232 230 230 231 233 235 236 236 236 238 240 238 236 231 227 225 223 217 216 224 225 215 212 225 226 218 223 233 227 214 218 225 223 223 218 211 222 218 213 218 213 207 200 186 164 126 157 162 139 96 47 30 25 44
77 53 72 317 358 336 302 10 204 187 201 175 133 275 261 228 242 247 254 254 253 255 255 254 252 252 252 252 253 250 245 242 241 242 242 239 236 236 241 247 248 244 238 231 228 228 229 233 235 237 239 240 242 243 244 243 236 227 218 214 215 216 221 217 211 216 224 224 221 226 232 221 209 211 225 231 224 217 219 229 219 203 199 208 209 199 195 201 182 171 159 129 71 40 26 30 77
64 19 27 20 10 281 297 24 154 164 203 177 146 255 263 261 260 255 255 253 250 253 255 254 252 251 251 252 253 253 251 247 247 243 240 239 238 241 244 248 249 244 238 231 228 228 230 233 234 236 238 240 241 240 241 241 236 226 209 205 212 213 213 212 212 216 221 231 228 221 221 211 200 203 215 230 227 207 203 220 220 210 209 210 210 205 203 201 185 167 148 121 66 54 44 89 129
34 350 308 359 160 267 307 276 170 160 196 173 158 249 270 277 276 273 262 250 243 251 258 257 253 252 250 251 252 255 255 251 249 244 240 240 241 244 246 248 248 243 236 232 230 231 231 233 235 236 237 238 239 236 235 235 234 223 203 200 208 205 205 210 212 216 226 232 223 206 202 199 193 199 209 228 236 217 210 221 217 217 220 216 215 206 192 185 178 163 146 137 98 90 94 146 144
4 62 234 256 164 275 318 306 190 152 115 178 195 252 277 285 278 289 272 244 240 249 260 260 257 257 253 252 253 254 255 252 250 248 243 241 243 245 246 248 248 241 235 231 232 233 233 234 235 235 235 237 236 233 232 230 224 212 203 206 211 210 214 217 210 215 221 210 200 194 192 195 202 208 214 226 231 228 232 227 209 212 220 217 210 196 181 175 171 160 151 160 138 131 151 153 145
316 19 238 232 197 212 300 316 276 95 94 212 228 236 256 269 269 272 285 274 255 253 261 265 263 262 260 258 256 255 254 252 252 252 248 246 246 246 246 247 245 241 235 232 233 234 233 234 233 233 233 234 232 229 226 223 213 200 203 211 218 222 228 228 214 209 209 197 190 199 203 207 217 225 226 224 221 222 224 212 202 212 217 209 201 186 175 171 167 192 240 204 156 145 150 150 143
189 171 178 245 233 210 258 283 256 115 75 232 230 247 255 266 272 269 271 273 266 264 267 269 266 264 263 260 258 257 255 254 255 254 252 250 249 248 247 246 243 240 235 233 234 235 234 233 233 232 230 229 229 224 213 209 210 204 207 212 213 218 222 220 210 202 205 212 220 227 226 225 233 239 233 221 217 218 210 198 201 209 205 197 189 179 172 172 192 222 228 207 172 153 149 149 141
156 167 154 176 210 246 239 251 256 174 157 235 230 240 251 260 270 270 270 268 263 267 270 269 267 264 261 260 259 258 257 258 260 256 252 249 249 249 248 247 245 240 236 235 234 234 235 232 233 231 227 226 223 216 204 200 208 212 213 210 204 210 212 210 210 208 211 223 235 237 229 229 239 237 229 221 217 214 205 197 197 195 189 183 181 180 177 184 209 212 213 216 187 162 153 150 141
123 131 135 170 195 266 253 255 289 196 181 249 236 238 256 260 266 271 271 268 259 263 266 265 265 263 261 260 260 259 259 261 261 257 254 250 248 247 246 245 243 239 236 235 233 233 233 231 232 230 223 222 218 211 203 201 206 204 202 204 205 211 214 218 219 215 217 226 231 227 218 222 233 230 224 220 213 208 201 195 193 187 180 174 180 200 204 196 199 210 212 194 182 170 160 156 149
97 128 162 222 205 253 253 252 309 225 183 265 267 261 262 255 260 270 271 264 250 254 258 261 263 263 263 262 262 261 260 260 260 258 256 251 247 245 243 243 241 237 235 234 233 233 232 229 228 226 220 216 213 207 201 202 202 196 197 208 218 217 217 223 219 211 218 226 218 210 206 210 221 226 223 212 203 198 192 187 187 181 174 172 185 201 202 196 198 208 203 178 170 176 172 164 156
86 122 156 250 238 270 280 301 336 10 189 268 299 285 268 256 254 263 262 253 252 255 254 258 263 263 264 263 264 263 261 260 259 258 256 253 248 244 242 242 241 238 235 235 234 232 232 228 223 221 215 208 209 208 203 204 204 202 207 217 223 223 217 213 209 209 216 213 203 201 201 200 210 223 220 204 192 187 184 185 190 187 180 184 192 194 191 193 191 181 181 180 173 173 174 171 162
145 154 169 240 240 266 282 298 320 324 185 281 304 287 272 259 248 254 256 253 257 261 259 260 262 262 264 264 264 265 264 263 261 258 255 253 248 244 242 242 241 238 235 234 232 230 230 227 223 219 210 203 207 209 205 206 207 206 210 212 215 218 212 205 203 206 207 203 201 202 199 194 201 216 213 196 187 187 183 184 195 194 187 189 193 193 194 189 179 169 168 173 171 172 174 172 167
243 198 196 218 221 219 232 286 318 324 8 6 332 293 275 252 242 250 262 262 262 262 260 261 261 261 262 263 264 264 265 265 264 261 257 253 250 247 245 243 241 239 236 235 233 231 229 227 223 219 211 206 208 207 203 205 206 206 204 201 201 204 205 206 207 208 207 206 204 199 196 191 198 214 205 185 180 181 181 184 189 186 184 188 188 191 193 180 171 169 165 160 159 165 170 171 171
281 232 207 215 218 223 240 337 2 353 327 339 14 317 285 266 240 252 283 309 268 261 258 258 261 262 261 262 266 267 267 267 266 264 261 257 252 248 245 242 241 241 239 235 234 231 229 227 221 216 213 210 210 207 205 206 207 206 203 199 204 209 210 212 214 215 212 207 202 198 193 190 207 220 198 180 179 177 179 186 184 183 188 188 181 181 181 173 169 169 163 161 160 155 160 170 174
300 253 207 208 199 201 232 249 48 280 261 280 49 10 280 277 220 238 259 264 266 272 272 263 263 265 263 265 270 272 272 271 267 266 263 259 253 246 243 243 242 242 239 234 231 229 226 225 221 217 214 210 209 209 208 207 205 207 211 214 219 219 213 212 214 213 209 204 199 192 185 193 217 215 189 182 183 179 179 182 182 186 189 180 171 174 175 171 171 168 163 162 159 156 162 171 173
246 250 158 160 164 184 202 164 180 239 276 310 38 111 275 280 243 244 249 248 272 281 276 269 264 265 267 270 274 276 276 275 271 267 264 260 255 249 245 244 242 241 238 232 229 227 224 223 221 218 215 209 206 207 208 209 206 209 215 215 215 218 215 214 212 206 204 200 192 182 182 203 216 199 187 186 182 178 180 183 184 185 181 170 166 171 173 172 170 166 162 159 158 165 170 169 175
249 213 120 136 151 158 137 122 171 321 358 304 296 129 264 275 256 309 320 238 260 265 260 264 266 269 273 274 276 280 278 274 269 265 263 261 257 253 249 245 243 241 238 233 230 227 222 222 221 218 216 210 206 208 209 209 208 212 214 209 209 215 215 214 211 208 204 197 189 181 186 209 212 193 186 183 182 183 183 186 187 180 174 170 169 171 173 172 168 164 162 160 161 167 171 167 170
183 137 98 84 79 81 85 102 114 45 323 254 210 165 237 275 233 132 48 221 237 250 252 259 270 275 275 269 269 275 273 267 264 260 259 258 256 252 247 243 241 241 239 234 228 225 221 220 220 218 216 212 208 209 208 206 207 210 213 212 212 213 212 211 210 208 201 194 189 186 194 215 213 195 187 182 185 187 185 185 183 177 176 176 173 172 172 171 167 166 166 163 161 162 164 152 154
138 119 74 62 41 43 54 46 81 53 285 262 206 187 203 271 260 178 192 219 219 232 252 268 275 270 260 256 262 267 265 259 254 250 248 246 245 241 238 238 237 239 238 231 224 221 219 219 218 217 216 213 209 206 204 204 205 208 211 211 211 212 212 210 207 205 199 193 191 194 205 220 209 196 192 188 185 185 182 181 179 178 181 180 176 173 174 175 170 168 169 163 159 155 147 137 178
124 94 88 85 356 10 26 355 47 126 256 272 262 217 208 242 255 228 243 263 240 221 239 262 271 258 242 240 257 263 260 258 255 255 253 248 246 241 235 234 232 233 234 229 222 219 218 217 216 215 215 212 206 203 203 204 203 204 206 206 209 215 214 208 205 204 199 196 201 209 219 221 202 191 191 188 184 182 180 179 180 183 183 181 179 176 175 178 175 171 168 162 157 152 154 198 231
110 99 114 104 336 348 346 312 65 233 251 269 334 305 238 243 250 252 260 266 250 224 232 246 256 259 256 252 254 258 259 264 268 268 267 261 258 254 245 237 231 230 231 228 222 218 217 216 214 215 215 210 204 200 201 204 203 201 202 205 212 216 213 207 203 205 205 209 217 223 228 216 193 184 186 185 182 180 180 182 184 185 184 183 182 180 181 182 180 177 172 168 167 168 189 222 238
172 149 142 142 135 160 278 277 261 268 267 285 339 210 248 266 260 237 239 248 248 240 245 252 257 265 271 272 267 265 265 268 270 268 267 265 263 259 251 242 234 232 231 227 222 219 218 215 213 215 214 209 204 200 199 202 204 204 204 210 215 212 208 203 201 206 213 223 230 231 229 208 188 184 184 182 180 181 183 187 188 187 186 186 185 185 187 186 185 185 181 180 181 186 203 219 230
186 159 140 158 156 168 212 217 225 261 284 293 304 223 207 220 254 232 233 254 259 250 248 254 259 263 270 275 274 273 272 272 271 269 267 265 262 256 250 244 237 234 231 227 222 219 218 216 214 214 213 208 203 200 200 201 206 208 207 211 215 210 202 197 198 209 221 231 233 229 222 202 189 186 185 182 183 185 186 188 190 189 188 189 190 190 191 192 191 190 187 187 188 192 204 212 219
209 123 120 190 184 160 177 199 184 192 314 299 242 228 220 215 264 261 250 264 263 251 250 255 258 258 262 268 271 273 274 273 270 268 267 262 256 250 246 242 237 233 231 228 224 219 217 216 215 215 213 210 204 201 201 201 207 212 207 208 212 203 196 195 203 217 227 232 230 223 212 198 190 190 188 185 187 188 190 191 190 191 191 193 194 194 196 196 195 194 192 191 192 197 203 207 214
166 134 179 216 174 128 118 228 76 68 281 274 210 249 288 306 277 262 243 252 257 258 261 255 254 257 259 262 265 270 274 276 273 268 265 261 254 249 246 242 237 232 230 229 225 220 218 217 217 215 213 210 205 203 203 202 206 208 201 203 207 198 194 202 214 223 228 229 224 215 205 196 192 192 190 189 191 192 193 193 192 193 194 196 198 197 198 198 197 196 195 196 197 201 204 207 213
125 180 204 179 113 92 107 204 4 43 252 271 247 254 284 293 275 286 148 237 253 256 254 254 259 262 259 258 262 269 274 276 273 266 260 257 253 249 246 243 238 234 231 231 227 222 219 218 219 218 214 211 206 204 205 204 205 203 198 201 204 199 199 212 223 226 228 228 220 208 201 197 194 194 194 194 194 195 195 195 195 197 198 199 200 200 199 199 198 197 196 196 197 200 206 211 218
124 185 180 131 143 189 127 164 203 190 240 276 295 283 267 224 231 244 182 212 239 248 246 252 257 250 248 256 259 261 265 266 263 259 255 254 254 251 247 242 239 234 231 231 229 223 219 218 219 219 217 214 208 205 207 207 206 205 205 206 206 205 209 219 225 225 228 229 217 204 199 197 196 196 197 198 198 199 199 198 199 200 201 202 202 203 202 201 200 199 198 197 198 201 207 217 227
49 84 146 126 149 175 168 158 173 181 214 273 314 313 268 228 202 191 198 207 211 218 228 236 239 234 233 246 250 245 251 255 253 249 248 250 252 252 248 243 239 235 231 229 227 224 220 218 219 218 216 214 210 208 209 208 206 206 209 209 208 210 215 221 225 228 232 228 213 202 200 198 197 199 200 201 202 203 203 203 202 203 205 205 205 205 204 203 202 202 200 199 202 207 212 224 233
145 161 180 197 158 125 178 139 114 135 150 217 281 283 267 243 176 178 198 207 200 194 208 223 232 236 225 216 230 238 228 214 216 225 234 241 245 246 244 241 237 233 231 229 227 225 222 220 220 218 215 214 210 209 208 207 207 208 210 210 210 211 215 222 228 233 234 224 209 202 201 200 200 202 203 204 205 206 207 207 207 206 207 208 207 206 205 205 205 205 204 203 206 211 218 228 234
180 191 194 192 174 133 155 232 256 134 153 191 178 264 273 249 164 188 197 198 199 198 212 222 225 231 229 216 222 219 191 168 160 184 215 234 238 240 240 237 234 231 228 228 227 226 223 222 221 219 216 215 212 209 208 209 211 211 211 213 212 212 217 226 232 234 231 221 208 203 203 202 203 205 206 207 208 209 210 210 210 210 209 209 209 208 208 208 208 208 207 207 209 213 221 229 234